Location: Rounton
(54.4000°N, 1.3500°W)
Time: 08:40:11
(UTC+01:00)

A-11 Canister half - Pass Details

Date: 27 June 2022
Orbit: 1525 x 1683 km, 47.3° (Epoch: 16 August)

Event Time Altitude Azimuth Distance (km) Brightness Sun altitude
Rises 02:17:35 0° 283° (WNW) 4,683 11.5 -10.9°
Reaches altitude 10° 02:22:01 10° 265° (W) 3,694 10.8 -10.7°
Maximum altitude 02:27:16 17° 230° (SW) 3,190 10.2 -10.4°
Enters shadow 02:31:30 12° 200° (SSW) 3,533 10.2 -10.2°
